Tracking 17631 objects as of 4-May-2016
HD Live streaming from Space Station
objects crossing your sky now

CZ-4 DEB

Track CZ-4 DEB now!
10-day predictions


NORAD ID: 26259
Int'l Code: 1999-057EV
Perigee: 671.4 km
Apogee: 799.3 km
Inclination: 98.5 °
Period: 99.4 minutes
Semi major axis: 7106 km
RCS: 0.031 m2 (small)
Launch date: October 14, 1999
Source: People's Republic of China (PRC)
Launch site: Taiyaun Space Center, China (TSC)

Note: This is SATELLITE DEBRIS
Your satellite tracking list
Your tracking list is empty





NASA's NSSDC Master Catalog

Two Line Element Set (TLE):
1 26259U 99057EV  16123.87510928  .00001166  00000-0  30295-3 0  9993
2 26259  98.5222  95.2800 0090915 198.7121 221.5335 14.49222815846424
Source of the keplerian elements: AFSPC

N2YO: 452